period_start,C,m1,H,J0,J1,J2,J3,J4,J5,JA,JB,JC,JD,JJ,JK,JN,#
2017-07-04 00:02:18,0.00,0.59,0.00,24.25,28.62,31.56,13.62,41.57,1003.05,2026.00,3299.39,2908.00,3342.00,599.67,585.34,28.41,0000 0000 0000 0000 000000
2017-07-04 00:07:19,0.00,0.59,0.00,24.25,28.62,31.54,13.66,41.48,1003.35,2026.00,3299.41,2908.00,3342.00,599.80,585.59,28.46,0000 0000 0000 0000 000000
2017-07-04 00:12:20,0.00,0.59,0.00,24.27,28.62,31.55,13.62,41.63,1002.97,2026.00,3299.32,2908.00,3342.00,599.78,585.40,28.51,0000 0000 0000 0000 000000
2017-07-04 00:17:21,0.00,0.59,0.00,24.27,28.62,31.56,13.65,41.62,1002.68,2026.01,3299.09,2908.00,3342.00,600.00,585.34,28.56,0000 0000 0000 0000 000000
2017-07-04 00:22:22,0.00,0.59,0.00,24.27,28.62,31.57,13.64,41.71,1002.32,2026.00,3299.02,2908.00,3342.00,600.06,585.27,28.61,0000 0000 0000 0000 000000
2017-07-04 00:27:24,0.01,0.59,0.00,24.28,28.62,31.56,13.61,41.80,1002.05,2026.00,3299.00,2907.88,3341.82,600.04,585.04,28.66,0000 0000 0000 0000 000000
2017-07-04 00:32:25,-0.00,0.59,0.00,24.28,28.62,31.57,13.62,41.83,1001.97,2026.00,3299.00,2907.86,3341.69,599.92,584.91,28.71,0000 0000 0000 0000 000000
2017-07-04 00:37:26,0.01,0.59,0.00,24.29,28.62,31.56,13.71,41.83,1001.83,2026.02,3298.98,2907.74,3341.56,600.12,584.91,28.76,0000 0000 0000 0000 000000
2017-07-04 00:42:28,0.02,0.59,0.00,24.30,28.62,31.55,13.65,41.84,1001.62,2026.00,3298.89,2907.34,3341.19,600.14,584.92,28.81,0000 0000 0000 0000 000000
2017-07-04 00:47:29,0.00,0.59,0.00,24.29,28.62,31.57,13.69,41.73,1001.84,2026.01,3298.83,2907.36,3341.16,600.03,584.84,28.86,0000 0000 0000 0000 000000
2017-07-04 00:52:30,0.01,0.59,0.00,24.30,28.63,31.56,13.64,41.69,1001.51,2026.01,3298.46,2907.13,3341.06,600.05,584.64,28.91,0000 0000 0000 0000 000000
2017-07-04 00:57:32,0.01,0.59,0.00,24.30,28.63,31.56,13.59,41.69,1001.49,2026.01,3298.21,2907.10,3341.03,600.03,584.62,28.96,0000 0000 0000 0000 000000
2017-07-04 01:02:33,0.00,0.59,0.00,24.30,28.64,31.56,13.64,41.69,1001.50,2026.01,3298.05,2907.04,3341.00,599.91,584.59,29.01,0000 0000 0000 0000 000000
2017-07-04 01:07:35,0.00,0.59,0.00,24.31,28.65,31.58,13.63,41.66,1001.47,2026.01,3298.01,2907.00,3341.00,600.25,584.76,29.06,0000 0000 0000 0000 000000
2017-07-04 01:12:36,0.00,0.59,0.00,24.32,28.65,31.58,13.66,41.67,1001.31,2026.02,3298.00,2907.00,3340.99,600.03,584.55,29.11,0000 0000 0000 0000 000000
2017-07-04 01:17:37,0.00,0.59,0.00,24.33,28.65,31.57,13.58,41.61,1001.09,2026.00,3298.00,2907.00,3340.99,599.84,584.20,29.16,0000 0000 0000 0000 000000
2017-07-04 01:22:39,0.00,0.59,0.00,24.35,28.65,31.57,13.62,41.56,1000.99,2026.00,3297.96,2906.99,3340.86,599.86,584.09,29.21,0000 0000 0000 0000 000000
2017-07-04 01:27:40,0.00,0.59,0.00,24.35,28.65,31.58,13.66,41.52,1000.99,2026.00,3297.89,2906.98,3340.66,600.05,584.22,29.26,0000 0000 0000 0000 000000
2017-07-04 01:32:41,0.02,0.60,0.00,24.35,28.66,31.60,13.61,41.54,1000.86,2026.00,3297.25,2906.92,3340.11,600.25,584.35,29.31,0000 0000 0000 0000 000000
2017-07-04 01:37:42,0.01,0.60,0.00,24.37,28.67,31.57,13.58,41.50,1000.78,2026.00,3297.01,2906.55,3340.00,600.04,584.12,29.36,0000 0000 0000 0000 000000
2017-07-04 01:42:43,0.01,0.60,0.00,24.38,28.67,31.59,13.57,41.46,1000.58,2026.00,3297.00,2906.22,3340.00,599.93,583.85,29.41,0000 0000 0000 0000 000000
2017-07-04 01:47:45,0.00,0.60,0.00,24.38,28.67,31.59,13.65,41.59,1000.51,2025.99,3297.00,2906.10,3339.99,600.36,584.16,29.46,0000 0000 0000 0000 000000
2017-07-04 01:52:46,0.00,0.60,0.00,24.39,28.68,31.61,13.46,41.56,1000.49,2025.99,3296.98,2906.01,3339.98,599.54,583.38,29.51,0000 0000 0000 0000 000000
2017-07-04 01:57:47,0.00,0.60,0.00,24.41,28.70,31.61,13.56,41.75,1000.30,2025.98,3296.98,2906.01,3339.95,599.64,583.22,29.56,0000 0000 0000 0000 000000
2017-07-04 02:02:49,0.01,0.60,0.00,24.41,28.70,31.62,13.58,41.76,1000.03,2025.98,3296.55,2906.00,3339.61,599.87,583.21,29.61,0000 0000 0000 0000 000000
2017-07-04 02:07:50,0.01,0.60,0.00,24.41,28.70,31.64,13.68,41.77,1000.00,2025.97,3296.04,2905.98,3339.05,600.35,583.87,29.66,0000 0000 0000 0000 000000
2017-07-04 02:12:51,-0.00,0.60,0.00,24.42,28.71,31.62,13.64,41.90,999.92,2025.96,3296.01,2905.97,3339.01,600.49,583.83,29.71,0000 0000 0000 0000 000000
2017-07-04 02:17:52,0.01,0.60,0.00,24.42,28.72,31.63,13.65,41.73,999.69,2025.93,3295.99,2905.90,3339.00,600.30,583.45,29.76,0000 0000 0000 0000 000000
2017-07-04 02:22:54,0.01,0.60,0.00,24.42,28.72,31.65,13.62,41.75,999.61,2025.85,3295.98,2905.54,3338.98,600.07,583.39,29.81,0000 0000 0000 0000 000000
2017-07-04 02:27:55,0.00,0.60,0.00,24.43,28.73,31.66,13.56,41.77,999.54,2025.68,3295.74,2905.09,3338.78,599.99,583.15,29.86,0000 0000 0000 0000 000000
2017-07-04 02:32:57,0.00,0.60,0.00,24.45,28.75,31.66,13.52,41.82,999.53,2025.48,3295.18,2905.02,3338.20,599.76,582.94,29.91,0000 0000 0000 0000 000000
2017-07-04 02:37:58,0.04,0.60,0.00,24.45,28.75,31.67,13.64,41.88,999.53,2025.31,3294.30,2904.20,3337.20,600.06,583.28,29.96,0000 0000 0000 0000 000000
2017-07-04 02:42:59,0.01,0.60,0.00,24.45,28.75,31.67,13.60,41.85,999.51,2025.32,3294.00,2904.00,3337.00,600.16,583.38,30.01,0000 0000 0000 0000 000000
2017-07-04 02:48:00,-0.01,0.60,0.00,24.45,28.76,31.69,13.64,42.33,999.26,2025.19,3294.00,2904.00,3336.99,600.60,583.65,30.06,0000 0000 0000 0000 000000
2017-07-04 02:53:02,-0.00,0.60,0.00,24.45,28.77,31.71,13.63,42.29,999.05,2025.08,3293.88,2903.98,3336.92,600.11,582.97,30.11,0000 0000 0000 0000 000000
2017-07-04 02:58:03,0.01,0.60,0.00,24.45,28.77,31.73,13.57,42.28,999.04,2025.07,3293.43,2903.96,3336.70,599.81,582.77,30.16,0000 0000 0000 0000 000000
2017-07-04 03:03:04,0.03,0.60,0.00,24.45,28.77,31.72,13.56,42.07,999.04,2025.04,3293.04,2903.36,3336.10,599.57,582.46,30.21,0000 0000 0000 0000 000000
2017-07-04 03:08:06,0.00,0.60,0.00,24.45,28.80,31.71,13.59,42.13,998.92,2025.02,3292.99,2903.01,3336.00,600.12,583.04,30.26,0000 0000 0000 0000 000000
2017-07-04 03:13:08,0.00,0.60,0.00,24.46,28.80,31.72,13.60,42.23,998.68,2025.03,3292.87,2903.00,3335.98,600.10,582.88,30.31,0000 0000 0000 0000 000000
2017-07-04 03:18:09,0.01,0.60,0.00,24.47,28.80,31.72,13.59,42.12,998.51,2025.00,3292.20,2903.00,3335.58,599.56,582.11,30.36,0000 0000 0000 0000 000000
2017-07-04 03:23:10,0.01,0.60,0.00,24.47,28.80,31.71,13.62,42.24,998.14,2025.00,3292.00,2902.86,3335.08,600.00,582.22,30.41,0000 0000 0000 0000 000000
2017-07-04 03:28:11,0.00,0.61,0.00,24.48,28.82,31.74,13.51,42.02,998.07,2025.01,3292.00,2902.66,3335.01,599.98,582.37,30.46,0000 0000 0000 0000 000000
2017-07-04 03:33:13,0.02,0.61,0.00,24.50,28.82,31.75,13.53,42.33,998.11,2025.00,3291.82,2902.28,3334.86,600.30,582.55,30.51,0000 0000 0000 0000 000000
2017-07-04 03:38:14,0.02,0.61,0.00,24.48,28.82,31.74,13.57,42.42,998.06,2025.00,3291.03,2902.00,3334.06,599.90,582.18,30.56,0000 0000 0000 0000 000000
2017-07-04 03:43:15,0.04,0.61,0.00,24.49,28.85,31.74,13.52,42.33,998.06,2025.00,3290.63,2901.60,3333.62,599.61,581.78,30.61,0000 0000 0000 0000 000000
2017-07-04 03:48:16,0.01,0.61,0.00,24.50,28.85,31.76,13.62,42.23,998.05,2025.00,3290.04,2901.00,3333.01,600.09,582.32,30.66,0000 0000 0000 0000 000000
2017-07-04 03:53:17,0.00,0.61,0.00,24.50,28.85,31.77,13.56,42.22,997.74,2025.00,3290.00,2900.93,3332.98,599.72,581.69,30.71,0000 0000 0000 0000 000000
2017-07-04 03:58:19,0.01,0.61,0.00,24.50,28.86,31.76,13.60,42.21,997.86,2024.99,3289.97,2900.65,3332.81,600.21,582.27,30.76,0000 0000 0000 0000 000000
2017-07-04 04:03:19,0.02,0.61,0.00,24.51,28.87,31.78,13.63,41.98,998.20,2024.99,3289.91,2900.29,3332.35,600.17,582.40,30.81,0000 0000 0000 0000 000000
2017-07-04 04:08:21,0.01,0.61,0.00,24.52,28.87,31.80,13.61,41.71,998.20,2024.99,3289.62,2900.10,3332.11,600.19,582.29,30.86,0000 0000 0000 0000 000000
2017-07-04 04:13:22,0.01,0.61,0.00,24.53,28.88,31.78,13.52,41.74,998.15,2024.97,3289.08,2900.01,3332.00,599.72,581.81,30.91,0000 0000 0000 0000 000000
2017-07-04 04:18:23,0.00,0.61,0.00,24.54,28.90,31.78,13.58,41.77,998.04,2024.97,3289.00,2900.00,3332.00,600.26,582.41,30.96,0000 0000 0000 0000 000000
2017-07-04 04:23:25,-0.00,0.61,0.00,24.57,28.90,31.80,13.49,41.78,997.62,2024.95,3288.95,2899.98,3331.90,599.73,581.58,31.01,0000 0000 0000 0000 000000
2017-07-04 04:28:26,0.01,0.61,0.00,24.57,28.91,31.80,13.54,41.99,997.56,2024.82,3288.48,2899.81,3331.29,600.20,581.93,31.06,0000 0000 0000 0000 000000
2017-07-04 04:33:27,-0.00,0.61,0.00,24.59,28.92,31.80,13.58,42.02,997.53,2024.54,3288.03,2899.23,3331.01,600.14,581.93,31.11,0000 0000 0000 0000 000000
2017-07-04 04:38:28,-0.01,0.61,0.00,24.60,28.92,31.84,13.59,41.92,997.40,2024.38,3288.00,2899.03,3331.00,599.61,581.24,31.16,0000 0000 0000 0000 000000
2017-07-04 04:43:30,0.02,0.61,0.00,24.62,28.95,31.81,13.49,41.80,997.52,2024.56,3288.00,2899.01,3331.00,599.87,581.51,31.21,0000 0000 0000 0000 000000
2017-07-04 04:48:31,-0.02,0.61,0.00,24.63,28.95,31.81,13.53,41.67,997.22,2024.43,3287.97,2899.00,3330.94,599.90,581.39,31.26,0000 0000 0000 0000 000000
2017-07-04 04:53:32,0.00,0.61,0.00,24.65,28.96,31.84,13.52,41.63,997.16,2024.17,3287.34,2898.99,3330.38,599.97,581.40,31.31,0000 0000 0000 0000 000000
2017-07-04 04:58:34,0.01,0.61,0.00,24.66,28.97,31.83,13.58,41.61,997.00,2024.14,3287.04,2898.98,3330.05,599.78,581.06,31.36,0000 0000 0000 0000 000000
2017-07-04 05:03:35,0.01,0.61,0.00,24.68,28.99,31.86,13.52,41.74,996.87,2024.06,3287.00,2898.54,3330.00,600.12,581.31,31.41,0000 0000 0000 0000 000000
2017-07-04 05:08:37,0.01,0.62,0.00,24.70,29.00,31.86,13.54,41.77,996.63,2024.02,3286.90,2898.06,3329.98,599.61,580.60,31.46,0000 0000 0000 0000 000000
2017-07-04 05:13:38,0.01,0.62,0.00,24.69,29.00,31.88,13.52,41.62,996.57,2024.03,3286.48,2898.01,3329.81,600.02,580.92,31.51,0000 0000 0000 0000 000000
2017-07-04 05:18:39,0.01,0.62,0.00,24.70,29.02,31.90,13.57,41.59,996.56,2024.04,3286.06,2898.00,3329.22,600.28,581.21,31.56,0000 0000 0000 0000 000000
2017-07-04 05:23:40,-0.00,0.62,0.00,24.71,29.02,31.90,13.54,41.63,996.43,2024.02,3286.00,2898.00,3329.02,600.16,581.01,31.61,0000 0000 0000 0000 000000
2017-07-04 05:28:41,0.02,0.62,0.00,24.72,29.05,31.93,13.53,41.59,996.15,2024.01,3285.71,2897.61,3328.97,599.80,580.49,31.66,0000 0000 0000 0000 000000
2017-07-04 05:33:43,0.03,0.62,0.00,24.72,29.05,31.93,13.57,41.59,996.13,2024.00,3285.06,2897.05,3328.37,600.26,580.88,31.71,0000 0000 0000 0000 000000
2017-07-04 05:38:44,0.00,0.62,0.00,24.76,29.06,31.93,13.51,41.71,996.11,2024.00,3284.98,2897.00,3328.01,600.19,580.75,31.76,0000 0000 0000 0000 000000
2017-07-04 05:43:45,0.00,0.62,0.00,24.77,29.07,31.95,13.56,41.73,996.12,2024.00,3284.62,2896.95,3327.96,600.19,580.72,31.81,0000 0000 0000 0000 000000
2017-07-04 05:48:46,0.04,0.62,0.00,24.77,29.08,31.95,13.57,41.66,996.11,2024.00,3284.03,2896.39,3327.34,600.39,580.86,31.86,0000 0000 0000 0000 000000
2017-07-04 05:53:48,0.00,0.62,0.00,24.77,29.10,31.96,13.51,41.65,996.11,2024.00,3284.00,2896.03,3327.01,600.11,580.62,31.91,0000 0000 0000 0000 000000
2017-07-04 05:58:49,0.00,0.62,0.00,24.78,29.10,31.98,13.56,41.68,996.09,2024.00,3283.71,2896.00,3327.00,599.87,580.38,31.96,0000 0000 0000 0000 000000
2017-07-04 06:03:50,0.01,0.62,0.00,24.80,29.11,31.99,13.56,41.58,995.74,2024.00,3283.06,2895.98,3326.89,600.21,580.40,32.02,0000 0000 0000 0000 000000
2017-07-04 06:08:52,0.03,0.62,0.00,24.80,29.12,32.00,13.59,41.71,995.65,2023.99,3282.98,2895.60,3326.19,600.56,580.78,32.07,0000 0000 0000 0000 000000
2017-07-04 06:13:53,0.01,0.63,0.00,24.81,29.12,32.00,13.54,41.71,995.63,2023.99,3282.56,2895.05,3326.00,599.77,579.94,32.12,0000 0000 0000 0000 000000
2017-07-04 06:18:54,0.01,0.63,0.00,24.82,29.14,32.02,13.48,41.80,995.63,2023.98,3282.06,2895.01,3325.98,599.76,579.97,32.17,0000 0000 0000 0000 000000
2017-07-04 06:23:55,0.01,0.63,0.00,24.82,29.15,32.06,13.52,41.67,995.64,2023.98,3281.95,2894.98,3325.47,599.97,580.21,32.22,0000 0000 0000 0000 000000
2017-07-04 06:28:57,0.03,0.63,0.00,24.84,29.15,32.08,13.50,41.66,995.64,2023.98,3281.25,2894.53,3325.04,599.86,580.01,32.27,0000 0000 0000 0000 000000
2017-07-04 06:33:58,0.00,0.63,0.00,24.85,29.17,32.07,13.56,41.67,995.63,2023.94,3281.01,2894.05,3324.97,599.74,579.91,32.32,0000 0000 0000 0000 000000
2017-07-04 06:38:59,0.01,0.63,0.00,24.85,29.17,32.07,13.49,41.77,995.62,2023.89,3280.78,2894.00,3324.41,599.86,579.97,32.37,0000 0000 0000 0000 000000
2017-07-04 06:44:00,0.01,0.63,0.00,24.85,29.17,32.10,13.54,41.76,995.59,2023.89,3280.14,2894.00,3324.02,600.06,580.07,32.42,0000 0000 0000 0000 000000
2017-07-04 06:49:02,0.01,0.63,0.00,24.85,29.19,32.10,13.62,41.75,995.58,2023.91,3280.00,2893.79,3324.00,600.31,580.36,32.47,0000 0000 0000 0000 000000
2017-07-04 06:54:03,0.01,0.63,0.00,24.85,29.20,32.12,13.53,41.74,995.60,2023.92,3279.98,2893.39,3323.98,600.27,580.38,32.52,0000 0000 0000 0000 000000
2017-07-04 06:59:04,0.01,0.63,0.00,24.85,29.20,32.13,13.51,41.69,995.54,2023.92,3279.61,2893.06,3323.94,599.60,579.61,32.57,0000 0000 0000 0000 000000
2017-07-04 07:04:06,0.01,0.63,0.00,24.85,29.20,32.14,13.55,41.66,995.37,2023.91,3279.14,2893.02,3323.50,600.22,580.19,32.62,0000 0000 0000 0000 000000
2017-07-04 07:09:07,0.01,0.63,0.00,24.85,29.22,32.16,13.57,41.73,995.18,2023.92,3279.01,2893.00,3323.09,599.94,579.76,32.67,0000 0000 0000 0000 000000
2017-07-04 07:14:08,-0.02,0.63,0.00,24.84,29.22,32.16,13.46,41.73,995.15,2023.73,3279.00,2893.00,3323.01,599.34,579.16,32.72,0000 0000 0000 0000 000000
2017-07-04 07:19:10,-0.01,0.63,0.00,24.82,29.22,32.17,13.46,41.69,995.13,2023.53,3278.87,2892.98,3322.99,599.91,579.72,32.77,0000 0000 0000 0000 000000
2017-07-04 07:24:11,0.03,0.63,0.00,24.82,29.22,32.17,13.51,41.71,995.13,2023.69,3278.36,2892.92,3322.96,599.90,579.79,32.82,0000 0000 0000 0000 000000
2017-07-04 07:29:12,0.03,0.64,0.00,24.82,29.23,32.18,13.52,41.88,995.13,2023.77,3278.01,2892.51,3322.80,599.31,579.29,32.88,0000 0000 0000 0000 000000
2017-07-04 07:34:13,0.02,0.64,0.00,24.81,29.24,32.19,13.55,41.83,995.12,2023.86,3277.98,2892.12,3322.21,599.93,579.81,32.93,0000 0000 0000 0000 000000
2017-07-04 07:39:15,0.01,0.64,0.00,24.81,29.25,32.19,13.56,41.95,995.11,2023.87,3277.68,2892.02,3322.01,600.46,580.33,32.98,0000 0000 0000 0000 000000
2017-07-04 07:44:16,0.01,0.64,0.00,24.81,29.25,32.19,13.49,41.88,995.10,2023.89,3277.07,2892.00,3322.00,599.51,579.49,33.03,0000 0000 0000 0000 000000
2017-07-04 07:49:17,-0.00,0.64,0.00,24.81,29.25,32.21,13.59,41.90,995.05,2023.94,3277.00,2892.00,3321.99,600.07,579.84,33.08,0000 0000 0000 0000 000000
2017-07-04 07:54:19,-0.00,0.64,0.00,24.82,29.25,32.20,13.62,41.78,994.94,2023.94,3276.99,2891.99,3321.94,600.16,579.92,33.13,0000 0000 0000 0000 000000
2017-07-04 07:59:20,0.00,0.64,0.00,24.81,29.25,32.20,13.51,41.74,994.71,2023.93,3276.90,2891.93,3321.51,599.83,579.43,33.18,0000 0000 0000 0000 000000
2017-07-04 08:04:21,0.02,0.64,0.00,24.80,29.26,32.20,13.58,41.73,994.67,2023.90,3276.33,2891.74,3321.11,599.97,579.62,33.23,0000 0000 0000 0000 000000
2017-07-04 08:09:22,0.02,0.64,0.00,24.80,29.27,32.20,13.46,41.77,994.66,2023.96,3276.01,2891.36,3321.03,600.00,579.59,33.28,0000 0000 0000 0000 000000
2017-07-04 08:14:23,0.00,0.64,0.00,24.80,29.27,32.21,13.56,41.84,994.67,2023.93,3276.00,2891.04,3321.00,600.12,579.77,33.33,0000 0000 0000 0000 000000
2017-07-04 08:19:25,0.00,0.64,0.00,24.78,29.27,32.22,13.54,41.65,994.64,2023.93,3275.91,2891.00,3320.98,599.99,579.66,33.38,0000 0000 0000 0000 000000
2017-07-04 08:24:26,0.01,0.64,0.00,24.77,29.27,32.23,13.56,41.58,994.64,2023.93,3275.31,2891.00,3320.77,600.30,580.04,33.43,0000 0000 0000 0000 000000
2017-07-04 08:29:28,0.01,0.64,0.00,24.77,29.27,32.21,13.48,41.68,994.64,2023.97,3275.02,2891.00,3320.29,599.88,579.64,33.48,0000 0000 0000 0000 000000
2017-07-04 08:34:28,0.00,0.64,0.00,24.77,29.27,32.22,13.52,41.55,994.58,2023.99,3274.98,2890.98,3320.04,599.87,579.46,33.53,0000 0000 0000 0000 000000
2017-07-04 08:39:30,0.03,0.64,0.00,24.77,29.27,32.21,13.56,41.64,994.29,2023.98,3274.42,2890.61,3320.00,600.43,579.81,33.58,0000 0000 0000 0000 000000
2017-07-04 08:44:31,0.01,0.65,0.00,24.77,29.27,32.23,13.56,41.71,994.18,2023.97,3274.01,2890.10,3319.97,599.61,579.17,33.63,0000 0000 0000 0000 000000
2017-07-04 08:49:32,0.00,0.65,0.00,24.75,29.27,32.22,13.48,41.56,994.17,2023.97,3273.96,2890.01,3319.75,600.06,579.51,33.68,0000 0000 0000 0000 000000
2017-07-04 08:54:34,0.01,0.65,0.00,24.76,29.27,32.20,13.58,41.77,994.16,2023.98,3273.60,2890.00,3319.24,600.07,579.50,33.73,0000 0000 0000 0000 000000
2017-07-04 08:59:35,0.01,0.65,0.00,24.79,29.27,32.21,13.59,41.66,994.16,2023.99,3273.05,2890.00,3319.03,600.36,579.69,33.78,0000 0000 0000 0000 000000
2017-07-04 09:04:36,0.00,0.65,0.00,24.77,29.27,32.22,13.52,41.65,994.16,2023.99,3273.00,2889.98,3319.00,600.05,579.32,33.83,0000 0000 0000 0000 000000
2017-07-04 09:09:37,0.00,0.65,0.00,24.77,29.27,32.19,13.46,41.60,994.16,2023.99,3272.90,2889.84,3318.98,599.80,579.30,33.89,0000 0000 0000 0000 000000
2017-07-04 09:14:39,0.03,0.65,0.00,24.75,29.27,32.19,13.50,41.56,994.15,2023.99,3272.20,2889.28,3318.82,600.06,579.49,33.94,0000 0000 0000 0000 000000
2017-07-04 09:19:40,0.01,0.65,0.00,24.77,29.27,32.19,13.51,41.63,994.14,2023.99,3272.01,2889.10,3318.35,599.97,579.40,33.99,0000 0000 0000 0000 000000
2017-07-04 09:24:41,0.00,0.65,0.00,24.77,29.27,32.20,13.52,41.64,994.11,2023.99,3272.00,2889.00,3318.02,600.27,579.51,34.04,0000 0000 0000 0000 000000
2017-07-04 09:29:42,0.00,0.65,0.00,24.77,29.27,32.20,13.54,41.59,993.98,2023.99,3271.84,2889.00,3318.00,599.72,579.05,34.09,0000 0000 0000 0000 000000
2017-07-04 09:34:43,0.00,0.65,0.00,24.77,29.27,32.19,13.52,41.51,994.00,2023.99,3271.62,2889.00,3318.00,599.82,579.13,34.14,0000 0000 0000 0000 000000
2017-07-04 09:39:44,0.01,0.65,0.00,24.78,29.27,32.20,13.59,41.58,994.09,2023.99,3271.08,2888.99,3317.97,600.31,579.59,34.19,0000 0000 0000 0000 000000
2017-07-04 09:44:45,0.00,0.65,0.00,24.78,29.27,32.21,13.56,41.54,994.15,2023.99,3271.03,2888.96,3317.72,600.27,579.62,34.24,0000 0000 0000 0000 000000
2017-07-04 09:49:47,0.01,0.65,0.00,24.77,29.27,32.19,13.54,41.51,994.15,2023.99,3271.00,2888.88,3317.10,600.28,579.67,34.29,0000 0000 0000 0000 000000
2017-07-04 09:54:48,0.01,0.65,0.00,24.77,29.26,32.17,13.45,41.52,994.15,2023.99,3270.92,2888.44,3317.01,599.80,579.27,34.34,0000 0000 0000 0000 000000
2017-07-04 09:59:49,0.02,0.65,0.00,24.77,29.25,32.17,13.50,41.50,994.14,2023.97,3270.38,2888.10,3316.99,599.68,579.14,34.39,0000 0000 0000 0000 000000
2017-07-04 10:04:50,0.00,0.65,0.00,24.77,29.25,32.18,13.51,41.45,994.03,2023.97,3270.03,2888.02,3316.97,599.99,579.26,34.44,0000 0000 0000 0000 000000
2017-07-04 10:09:51,-0.00,0.65,0.00,24.75,29.25,32.17,13.54,41.42,993.83,2023.97,3270.00,2888.00,3316.91,600.16,579.39,34.49,0000 0000 0000 0000 000000
2017-07-04 10:14:53,0.01,0.65,0.00,24.75,29.25,32.17,13.52,41.46,993.68,2023.98,3270.00,2888.00,3316.62,599.82,579.01,34.54,0000 0000 0000 0000 000000
2017-07-04 10:19:54,0.01,0.65,0.00,24.74,29.25,32.18,13.58,41.53,993.67,2023.98,3269.90,2888.00,3316.31,599.98,579.17,34.59,0000 0000 0000 0000 000000
2017-07-04 10:24:56,0.01,0.66,0.00,24.72,29.24,32.16,13.51,41.31,993.67,2023.99,3269.22,2887.98,3316.02,599.93,579.14,34.64,0000 0000 0000 0000 000000
2017-07-04 10:29:57,0.00,0.66,0.00,24.72,29.22,32.14,13.52,41.35,993.62,2023.99,3269.01,2887.98,3316.00,600.00,579.06,34.69,0000 0000 0000 0000 000000
2017-07-04 10:34:59,0.00,0.66,0.00,24.71,29.22,32.17,13.59,41.41,993.46,2023.99,3268.98,2887.90,3316.00,600.10,579.21,34.74,0000 0000 0000 0000 000000
2017-07-04 10:40:00,0.02,0.66,0.00,24.70,29.22,32.14,13.52,41.33,993.22,2023.99,3268.36,2887.45,3315.97,599.97,578.98,34.80,0000 0000 0000 0000 000000
2017-07-04 10:45:01,0.01,0.66,0.00,24.69,29.22,32.14,13.52,41.54,993.19,2023.99,3268.03,2887.22,3315.88,600.02,579.05,34.85,0000 0000 0000 0000 000000
2017-07-04 10:50:03,0.00,0.66,0.00,24.67,29.21,32.15,13.46,41.42,993.18,2024.02,3268.00,2887.06,3315.60,600.01,579.02,34.90,0000 0000 0000 0000 000000
2017-07-04 10:55:04,0.01,0.66,0.00,24.67,29.20,32.14,13.49,41.36,993.18,2024.04,3267.99,2887.02,3315.22,599.81,578.91,34.95,0000 0000 0000 0000 000000
2017-07-04 11:00:05,0.00,0.66,0.00,24.65,29.20,32.14,13.48,41.29,993.18,2024.02,3267.97,2887.01,3315.04,599.85,578.83,35.00,0000 0000 0000 0000 000000
2017-07-04 11:05:06,0.00,0.66,0.00,24.63,29.20,32.12,13.54,41.33,993.18,2024.01,3267.70,2887.00,3315.00,600.06,579.12,35.05,0000 0000 0000 0000 000000
2017-07-04 11:10:08,0.00,0.66,0.00,24.62,29.18,32.11,13.60,41.46,993.18,2024.01,3267.43,2887.00,3315.00,600.12,579.23,35.10,0000 0000 0000 0000 000000
2017-07-04 11:15:09,0.00,0.66,0.00,24.61,29.17,32.09,13.49,41.32,993.18,2024.02,3267.02,2887.00,3315.00,599.83,578.94,35.15,0000 0000 0000 0000 000000
2017-07-04 11:20:10,0.00,0.66,0.00,24.59,29.17,32.09,13.53,41.27,993.18,2024.04,3267.00,2886.99,3314.97,599.97,579.16,35.20,0000 0000 0000 0000 000000
2017-07-04 11:25:12,0.01,0.66,0.00,24.57,29.16,32.07,13.52,41.35,993.18,2024.09,3266.99,2886.98,3314.87,599.81,579.13,35.25,0000 0000 0000 0000 000000
2017-07-04 11:30:13,0.01,0.66,0.00,24.57,29.15,32.07,13.55,41.41,993.18,2024.05,3266.94,2886.96,3314.47,600.24,579.51,35.30,0000 0000 0000 0000 000000
2017-07-04 11:35:15,0.01,0.66,0.00,24.55,29.15,32.06,13.63,41.44,993.14,2024.06,3266.56,2886.90,3314.09,600.48,579.75,35.35,0000 0000 0000 0000 000000
2017-07-04 11:40:16,0.01,0.66,0.00,24.54,29.13,32.05,13.51,41.41,992.91,2024.07,3266.04,2886.80,3314.03,599.93,579.10,35.40,0000 0000 0000 0000 000000
2017-07-04 11:45:17,0.03,0.66,0.00,24.52,29.12,32.02,13.56,41.27,992.78,2024.18,3265.99,2886.32,3314.00,599.91,579.02,35.45,0000 0000 0000 0000 000000
2017-07-04 11:50:19,0.05,0.67,0.00,24.52,29.11,32.02,13.50,41.39,992.72,2024.59,3265.79,2886.11,3313.99,600.00,579.01,35.50,0000 0000 0000 0000 000000
2017-07-04 11:55:20,0.03,0.67,0.00,24.50,29.10,32.02,13.45,41.32,992.69,2024.83,3265.35,2886.04,3313.98,599.78,578.97,35.55,0000 0000 0000 0000 000000
2017-07-04 12:00:21,0.01,0.67,0.00,24.50,29.10,31.99,13.43,41.23,992.69,2024.93,3265.18,2886.04,3313.99,599.80,579.02,35.60,0000 0000 0000 0000 000000
2017-07-04 12:05:22,0.00,0.67,0.00,24.49,29.07,31.98,13.45,41.38,992.67,2024.97,3265.02,2886.03,3313.99,599.81,578.83,35.66,0000 0000 0000 0000 000000
2017-07-04 12:10:24,0.00,0.67,0.00,24.47,29.07,31.98,13.51,41.39,992.62,2024.99,3265.01,2886.01,3313.98,600.03,579.00,35.71,0000 0000 0000 0000 000000
2017-07-04 12:15:25,0.00,0.67,0.00,24.46,29.06,31.97,13.50,41.36,992.58,2024.99,3265.00,2886.00,3313.97,600.11,579.12,35.76,0000 0000 0000 0000 000000
2017-07-04 12:20:26,0.00,0.67,0.00,24.45,29.05,31.97,13.53,41.32,992.45,2024.99,3265.00,2886.01,3313.96,599.90,578.96,35.81,0000 0000 0000 0000 000000
2017-07-04 12:25:28,0.00,0.67,0.00,24.45,29.05,31.97,13.58,41.37,992.38,2024.99,3264.99,2886.00,3313.94,600.11,579.20,35.86,0000 0000 0000 0000 000000
2017-07-04 12:30:29,0.00,0.67,0.00,24.43,29.04,31.95,13.49,41.31,992.30,2024.99,3264.96,2886.00,3313.79,600.07,579.00,35.91,0000 0000 0000 0000 000000
2017-07-04 12:35:31,0.01,0.67,0.00,24.42,29.02,31.94,13.54,41.38,992.30,2024.99,3264.69,2886.00,3313.59,599.96,578.94,35.96,0000 0000 0000 0000 000000
2017-07-04 12:40:32,0.00,0.67,0.00,24.41,29.02,31.91,13.53,41.40,992.32,2024.99,3264.53,2886.00,3313.44,600.09,578.99,36.01,0000 0000 0000 0000 000000
2017-07-04 12:45:33,0.00,0.67,0.00,24.41,29.01,31.91,13.53,41.46,992.23,2024.99,3264.49,2886.00,3313.34,600.35,579.30,36.06,0000 0000 0000 0000 000000
2017-07-04 12:50:34,0.01,0.67,0.00,24.41,29.00,31.90,13.53,41.44,992.22,2025.00,3264.09,2886.00,3313.22,600.06,579.06,36.11,0000 0000 0000 0000 000000
2017-07-04 12:55:36,0.01,0.67,0.00,24.40,29.00,31.90,13.52,41.39,992.21,2025.03,3264.01,2886.00,3313.16,600.22,579.13,36.16,0000 0000 0000 0000 000000
2017-07-04 13:00:37,0.00,0.67,0.00,24.38,28.99,31.88,13.55,41.52,992.20,2025.05,3263.99,2885.99,3313.05,600.24,579.27,36.21,0000 0000 0000 0000 000000